Location: Tamazert
(32.6352°N, 5.2072°W)
Time: 03:24:35
(UTC+00:00)

Vanguard 1 Rocket - Pass Details

Date: 08 October 2022
Orbit: 650 x 4225 km, 34.3° (Epoch: 05 December)

Event Time Altitude Azimuth Distance (km) Brightness Sun altitude
Rises 14:46:15 0° 202° (SSW) 7,682 12.9 36.1°
Reaches altitude 10° 14:52:11 10° 193° (SSW) 7,010 12.7 35.2°
Maximum altitude 15:13:04 34° 137° (SE) 5,602 11.6 31.5°
Drops below altitude 10° 15:32:03 10° 83° (E) 6,522 11.3 28.1°
Sets 15:37:05 0° 75° (ENE) 7,132 11.4 27.2°
